NOAA 16 DEB, 41508

Orbit data source: Space-Track

NOAA 16 DEB, 41508 is space debris in SSO originally from a launch on Thu, 21 Sep 2000 UTC launched from the Air Force Western Test Range (AFWTR). Debris objects in space refer to the collection of defunct objects orbiting the Earth. Examples of debris include non-operational satellites, rocket bodies, and fragments generated from explosions, collisions, or faulty payload assembly.

Loading next visibility...
Identifier
41508, 2000-055MG
Orbit
SSO
Country
Flag of USUS
Related business
Manufacturer
Unknown
Mission
Spacecraft
Bus & Motor
Unknown
Mass
Unknown
Launch date (UTC)
2000-09-21 (25 years ago)
Launch vehicle
Unknown
Launch site
Air Force Western Test Range (AFWTR)
Object type
Payload
Rocket body
Debris
Shape & HBR
Unknown shape, 0.1 m
Radar Cross Section
Small (<0.1 m²)

Expand to show TLE details & history
Last TLE update: 2 days ago

TLE from 2 days ago
0 NOAA 16 DEB
1 41508U 00055MG  25351.16404152  .00003576  00000-0  13220-2 0  9998
2 41508  98.8534 107.9296 0024697  97.6226 262.7764 14.32865357500565
Epoch: 2025-12-17T03:56Z
TLE epoch observation values (Epoch: 2025-12-17T03:56:13.187Z)
Latitude
0.00004°
Longitude
-37.16319°
Altitude
787.364 km
Speed
7.459 km/s
True Right ascension
07h 11m 43s
True Declination
0° 00' 00"
Sunlit
Object was in full shadow at epoch
Visualization orbit readout
Latitude
Unknown
Longitude
Unknown
Altitude
Unknown
Speed
Unknown
Apparent Right ascension
Unknown
Apparent Declination
Unknown
Sunlit
N/A
Visualization observer readout
Local Sidereal Time
19:25:27
Azimuth
Unknown
Elevation
Unknown
Doppler factor
Unknown
Orbital elements
Apogee altitude
796.994 km
Perigee altitude
761.641 km
Semi-major axis
7,157.454 km
Eccentricity
0.00247
Inclination
98.8534°
RAAN
107.9296°
Arg. of periapsis
97.6226°
True anomaly
262.49575°
Mean anomaly
262.7764°
Eccentric anomaly
262.63606°
Mean motion
3.58431 °/min
Orbital period
100.44 mins
BSTAR
0.001322
Loading maneuver chart data...
Computing Atmospheric mass density...
Loading historical data...
Loading historical data...
Loading historical data...
Loading historical data...
Loading historical data...
Loading historical data...
Loading historical data...

Documentation

Showing up to 5 results
|